Wind_Speed
2 2 2 2 2 2 1 1 2 2 2 2 3 3 3 4 3 3 4 4 4 4 5 5 7 7 6 6 6 5 5 5 5 6 6 7 8 8 8 8 8 8 9 9 10 10 10 10 11
2 2 2 2 2 2 2 2 1 2 2 3 3 4 4 4 4 4 4 5 5 5 5 6 6 5 6 6 6 5 4 5 5 5 6 6 6 7 7 8 8 9 9 10 11 11 11 11 11
2 2 2 2 2 2 2 2 2 2 3 3 4 4 5 5 5 5 5 5 6 6 6 7 6 5 5 5 5 5 4 5 5 5 6 6 6 6 7 8 8 9 10 10 11 11 11 11 11
2 2 1 2 2 2 2 3 3 4 3 4 4 4 5 5 6 5 5 5 6 7 7 7 7 6 5 5 5 4 4 4 5 5 6 6 6 6 7 8 9 9 10 11 11 12 12 11 11
2 2 2 2 2 2 3 4 4 4 4 4 4 5 5 5 5 5 5 6 6 6 6 6 6 6 5 5 4 5 5 5 5 6 6 6 7 7 8 8 9 10 11 12 12 12 12 12 12
2 2 2 2 2 3 3 4 4 3 3 3 4 5 5 5 5 6 6 6 6 6 5 5 5 5 4 5 5 5 5 5 5 5 6 6 7 8 8 9 9 10 11 11 12 13 13 13 13
3 2 3 3 3 3 4 4 4 3 3 3 4 4 5 5 5 6 6 7 7 6 5 5 5 5 5 5 5 5 4 5 5 6 6 7 7 8 9 9 9 9 10 11 12 12 12 12 13
3 3 3 4 4 4 4 4 3 3 4 4 4 5 5 5 5 6 6 7 6 6 6 5 5 5 5 5 4 5 5 5 5 6 6 6 7 8 8 8 8 9 10 11 12 12 12 11 12
4 4 4 4 4 4 4 4 4 4 3 4 4 4 5 5 5 5 6 7 6 6 6 6 6 5 5 5 5 5 5 5 6 6 6 6 7 7 7 8 8 8 9 9 9 10 10 10 11
4 4 4 4 5 5 4 4 4 4 4 4 5 4 4 4 5 5 6 6 6 6 6 6 5 5 6 6 5 5 5 6 6 6 6 6 6 6 7 7 8 8 8 7 7 7 8 10 10
5 5 5 5 5 5 4 4 4 3 4 5 5 5 4 4 5 5 6 6 7 7 6 6 6 6 6 6 5 5 5 6 6 6 6 6 6 6 7 7 7 7 7 6 6 7 7 8 9
5 5 5 5 5 5 4 3 3 3 4 4 5 5 5 4 5 5 6 6 6 6 6 6 6 6 6 6 6 6 6 6 5 6 6 6 6 6 6 6 6 6 7 7 6 6 6 6 7
5 6 5 5 5 5 4 3 3 3 4 4 5 5 5 5 5 5 6 6 6 7 7 6 6 6 6 6 6 6 6 6 5 5 5 5 6 6 7 7 7 7 7 6 6 6 6 7 7
6 6 6 6 6 5 4 3 4 4 4 5 5 5 5 6 6 5 6 6 7 7 7 6 6 6 6 6 6 6 5 6 6 6 6 6 7 7 6 6 6 7 6 6 6 6 7 8 8
7 6 6 6 6 5 4 4 4 5 5 5 6 6 6 6 6 6 6 6 7 7 7 6 6 6 6 6 6 5 5 5 6 6 6 6 6 7 7 6 6 6 6 6 6 7 7 8 8
7 7 7 6 6 5 5 4 4 5 5 6 6 6 6 6 6 6 6 6 6 6 6 6 7 6 6 6 6 6 6 5 5 5 5 6 6 6 6 6 6 6 6 7 7 7 7 7 7
7 8 7 6 6 6 6 6 5 5 5 5 5 6 6 7 6 6 6 6 6 6 6 6 6 6 6 6 6 6 6 5 5 5 6 6 6 6 6 7 7 8 7 8 8 8 8 7 6
8 8 8 7 6 7 6 6 6 6 6 6 6 6 6 7 7 6 6 6 6 6 6 6 6 5 5 6 6 6 6 6 6 6 6 7 7 8 8 8 8 8 8 8 8 8 8 8 8
8 8 8 8 8 8 8 7 7 7 7 7 7 7 7 7 6 6 6 6 6 6 6 6 6 6 6 6 6 7 6 6 6 7 7 7 8 9 9 8 9 8 8 8 8 8 8 8 8
9 8 8 9 9 8 8 8 8 8 8 8 8 8 7 7 6 6 6 6 6 7 7 6 6 6 6 6 6 7 7 6 7 7 8 8 9 9 9 9 9 9 9 9 9 8 8 8 8
10 10 10 10 10 10 9 9 9 9 8 8 8 8 8 7 7 6 6 6 6 7 7 7 7 7 7 7 7 7 7 7 7 8 8 9 9 9 9 9 9 9 9 9 9 8 9 9 9
11 11 11 11 11 11 10 10 9 9 9 8 8 8 8 8 8 7 7 7 7 8 8 7 8 8 8 8 8 8 8 7 8 8 9 9 10 9 9 9 9 9 9 9 9 9 9 9 9
12 12 13 13 12 12 12 11 9 9 9 9 9 9 9 8 8 8 8 8 8 9 9 9 9 9 9 9 9 9 9 9 9 9 10 10 10 9 9 9 8 8 9 9 9 9 9 9 9
13 14 14 14 13 13 12 12 10 9 9 9 10 10 9 9 9 10 10 10 10 10 10 10 10 10 10 10 10 10 10 10 10 10 10 10 10 9 9 9 9 9 9 9 9 9 9 9 9
14 14 15 15 14 13 13 13 11 11 10 10 11 11 10 11 11 11 11 11 12 11 11 11 11 11 11 11 11 11 11 11 11 11 11 11 10 10 9 9 9 9 9 9 9 9 9 9 10
15 15 16 16 15 13 13 13 12 11 11 11 12 12 12 12 12 12 12 12 12 12 12 12 13 12 12 12 12 11 12 12 12 12 12 11 11 10 10 10 10 9 9 9 9 9 9 10 10
17 16 16 17 16 15 14 13 12 12 12 12 12 13 13 13 13 13 13 13 13 13 13 13 13 13 13 14 13 12 12 12 13 13 12 12 12 12 11 11 11 10 10 10 10 10 10 11 11
17 17 17 17 17 17 15 14 13 13 13 14 14 14 14 14 14 15 15 15 15 15 14 14 14 14 14 14 14 14 14 14 14 13 13 13 12 12 12 12 11 11 11 11 11 12 12 12 12
18 19 19 19 19 19 17 16 15 14 14 15 16 15 15 15 15 15 15 16 16 16 16 16 15 15 15 16 16 16 16 16 15 14 14 14 13 13 13 13 12 12 12 12 12 13 13 13 13
20 20 21 21 20 21 20 17 17 16 16 17 17 17 17 17 16 16 17 17 17 17 17 17 17 17 17 17 18 18 18 17 16 16 15 15 15 15 14 13 13 13 13 13 13 14 14 14 14
Wind_Direction
39 37 29 34 27 21 14 347 338 335 347 356 357 355 3 1 355 352 335 328 317 312 317 311 308 304 301 300 299 294 298 302 296 287 280 278 276 265 250 252 255 260 259 259 260 261 260 258 255
16 13 4 16 12 3 352 348 336 321 331 338 339 340 341 346 348 346 339 341 328 316 317 316 315 311 304 301 301 295 293 299 299 292 289 282 277 273 262 256 262 268 268 263 262 264 262 257 254
342 338 345 4 9 6 354 346 329 317 314 322 329 336 337 338 335 336 336 337 334 327 324 324 325 320 314 305 300 296 295 293 292 291 290 287 286 278 267 262 266 271 270 268 267 264 263 258 256
343 329 349 8 7 14 351 327 316 311 312 316 327 337 338 338 333 329 329 334 332 331 328 330 328 324 318 312 303 302 301 300 293 290 288 284 281 281 275 269 272 274 273 272 271 267 262 260 261
338 342 1 5 358 355 339 320 315 319 316 316 322 331 334 336 335 332 328 331 331 329 329 335 332 328 322 315 308 301 298 297 295 290 286 278 275 279 278 274 274 274 272 273 272 269 264 262 260
342 349 351 341 330 331 327 322 318 320 325 330 326 323 330 335 336 333 330 330 329 328 325 330 334 335 330 323 316 306 301 295 294 293 284 279 275 272 275 279 278 277 274 273 272 268 267 262 261
343 340 339 331 328 325 324 321 320 320 320 322 325 323 325 329 327 326 324 325 324 322 323 324 325 324 324 323 317 309 301 293 290 290 286 284 280 276 275 280 282 281 278 274 272 268 265 260 260
331 322 328 328 332 328 326 324 326 325 318 317 318 317 319 325 324 322 324 327 328 326 323 318 319 319 317 314 309 305 301 296 290 289 286 284 283 280 277 278 280 279 280 278 272 267 262 262 258
324 320 326 327 329 329 330 328 331 326 321 320 321 319 316 321 322 321 323 329 331 329 326 320 318 317 315 311 307 304 300 299 298 291 287 285 286 281 278 280 282 281 281 280 277 265 259 258 260
323 321 322 323 321 322 324 328 329 336 333 325 325 323 316 317 321 322 327 332 334 333 330 326 321 317 313 311 312 308 307 308 309 303 296 293 289 283 281 284 283 284 282 280 276 267 256 260 263
325 313 317 321 324 323 322 325 329 333 339 335 331 328 324 323 324 325 328 333 335 332 327 324 322 318 314 311 309 310 308 308 309 308 306 301 292 287 285 285 283 281 277 273 268 266 263 265 268
318 313 317 322 326 331 328 327 328 330 333 336 333 334 333 326 320 320 328 333 336 335 330 325 322 318 317 311 307 307 307 306 305 306 304 295 286 286 290 290 285 281 281 278 271 270 267 267 266
308 313 321 317 319 328 323 318 320 325 330 330 331 332 333 331 320 317 323 328 331 329 328 326 324 321 318 316 309 307 307 301 302 307 302 295 290 290 289 289 288 283 280 278 277 281 280 274 268
303 307 313 315 317 323 321 322 323 328 328 325 325 325 323 323 323 319 323 325 327 330 328 329 327 322 320 323 316 310 309 304 303 309 305 300 296 293 292 293 294 286 277 276 282 281 276 274 273
295 301 302 307 312 317 320 318 324 325 323 319 318 317 314 316 316 315 319 322 327 329 329 332 331 326 322 320 320 317 317 314 310 311 312 307 304 302 299 297 295 289 280 282 286 282 280 276 273
290 294 297 301 301 304 305 309 319 320 319 315 315 314 315 316 316 317 320 320 324 327 327 329 330 329 326 327 324 326 327 323 317 315 318 316 309 304 300 297 293 288 284 284 283 280 279 277 275
285 294 297 298 299 298 296 300 309 313 315 315 314 313 315 317 314 317 319 321 323 323 322 323 326 330 332 333 330 326 325 324 323 323 324 320 315 308 302 299 292 287 284 284 281 276 275 274 277
284 292 292 290 292 293 296 296 299 305 308 310 310 309 309 310 310 312 317 318 320 320 318 315 318 324 326 328 328 325 323 319 320 321 320 315 314 309 300 293 290 285 284 283 279 274 273 273 275
281 287 286 285 288 289 293 296 299 300 299 302 305 307 309 311 312 314 318 317 314 313 314 313 311 315 316 322 325 323 322 318 316 316 316 315 313 309 301 292 289 285 285 287 285 278 275 276 277
274 283 283 282 285 290 292 292 293 295 300 304 306 307 308 311 310 311 313 312 310 309 309 310 307 310 312 313 316 318 318 315 315 314 313 311 310 307 303 295 290 287 285 286 287 281 278 279 278
273 280 283 283 283 283 287 289 288 293 298 302 304 304 304 306 306 303 304 306 304 303 307 308 305 306 308 307 310 314 315 312 311 313 313 310 308 307 302 297 292 288 286 288 288 284 281 280 283
272 276 279 283 285 283 285 287 289 293 297 299 300 302 303 304 301 303 305 306 301 300 303 304 303 305 307 309 308 311 311 309 308 311 312 310 304 303 302 298 293 289 287 287 288 287 285 284 286
273 275 278 280 283 283 283 284 287 291 294 296 295 298 302 304 302 301 300 300 298 296 299 303 303 303 304 306 306 305 307 309 312 313 313 313 309 303 301 302 298 293 289 290 290 286 286 289 289
272 274 276 278 280 281 285 286 284 285 290 291 292 294 297 300 297 296 296 296 294 292 292 296 296 297 298 301 304 302 304 307 309 312 315 315 312 307 301 301 299 296 293 293 292 290 287 288 289
272 274 274 275 278 280 284 286 286 286 287 288 291 293 295 296 295 294 294 294 294 292 291 291 291 290 290 293 297 299 299 304 308 309 310 312 312 309 305 298 298 297 296 294 293 291 288 286 289
273 275 276 277 278 279 281 285 285 285 286 286 288 290 293 296 296 295 295 293 296 293 291 292 292 289 287 286 289 293 296 298 302 305 305 306 308 306 303 298 295 294 295 295 293 292 290 287 288
272 273 275 276 278 277 279 283 282 282 284 286 287 289 291 293 293 294 295 296 295 296 294 294 293 290 287 285 285 288 291 295 297 299 300 300 301 302 301 299 293 289 289 288 286 284 285 287 289
268 270 272 274 277 276 276 278 280 280 283 285 287 290 291 291 290 292 293 294 295 294 293 293 292 289 286 284 284 284 287 291 293 294 295 295 296 297 296 295 292 287 286 284 283 283 281 286 288
266 268 269 271 274 277 276 277 280 281 280 281 283 285 286 286 287 289 290 290 291 292 292 292 291 288 285 282 281 282 284 286 288 290 291 292 293 294 292 290 288 286 284 282 282 282 281 282 286
264 265 266 269 272 274 276 277 279 279 279 280 280 282 283 285 287 289 291 290 290 290 290 290 288 285 282 280 279 280 283 284 284 285 286 287 288 290 287 284 284 284 283 283 283 281 279 280 283
Height
5871 5871 5872 5873 5873 5872 5872 5872 5871 5871 5871 5870 5870 5869 5869 5869 5869 5871 5868 5866 5866 5866 5865 5864 5864 5863 5862 5862 5862 5862 5862 5862 5861 5861 5861 5862 5862 5862 5861 5862 5863 5863 5864 5864 5865 5866 5866 5867 5867
5872 5872 5873 5873 5873 5872 5872 5872 5871 5871 5871 5870 5870 5870 5869 5869 5868 5867 5866 5865 5865 5865 5864 5864 5863 5862 5861 5861 5861 5861 5861 5861 5860 5860 5860 5860 5860 5860 5860 5861 5861 5862 5862 5863 5863 5864 5864 5865 5865
5872 5873 5874 5873 5872 5872 5872 5872 5871 5871 5870 5870 5870 5869 5869 5868 5867 5867 5866 5865 5864 5864 5863 5863 5862 5861 5860 5860 5859 5859 5860 5859 5859 5859 5859 5859 5859 5859 5859 5859 5860 5860 5860 5861 5861 5861 5862 5862 5863
5873 5874 5874 5873 5872 5873 5872 5872 5871 5871 5870 5870 5869 5869 5868 5868 5867 5866 5865 5865 5864 5863 5863 5862 5861 5860 5860 5859 5858 5858 5858 5858 5858 5858 5858 5858 5858 5858 5858 5858 5858 5858 5858 5859 5859 5859 5859 5860 5861
5874 5874 5874 5873 5873 5873 5872 5872 5871 5870 5870 5870 5869 5868 5868 5867 5866 5866 5865 5865 5864 5863 5862 5862 5861 5860 5859 5858 5858 5857 5857 5857 5857 5857 5857 5856 5856 5856 5856 5856 5856 5856 5857 5856 5856 5856 5857 5857 5858
5874 5874 5874 5873 5873 5873 5872 5871 5871 5870 5870 5869 5869 5868 5867 5867 5866 5865 5865 5864 5863 5862 5861 5861 5860 5859 5858 5857 5857 5856 5856 5856 5856 5855 5855 5855 5855 5855 5855 5854 5854 5854 5854 5854 5854 5854 5854 5855 5856
5875 5874 5874 5873 5873 5872 5872 5871 5870 5870 5869 5869 5868 5867 5867 5866 5865 5865 5864 5863 5862 5861 5860 5860 5859 5858 5857 5856 5856 5855 5855 5854 5854 5854 5854 5854 5853 5853 5853 5852 5852 5852 5852 5851 5851 5851 5851 5852 5852
5874 5875 5873 5873 5873 5872 5871 5870 5870 5869 5869 5868 5868 5867 5866 5866 5865 5864 5863 5862 5861 5861 5860 5859 5858 5857 5856 5856 5855 5854 5854 5853 5853 5853 5852 5852 5852 5851 5851 5851 5850 5850 5849 5848 5847 5847 5848 5849 5849
5874 5875 5873 5873 5872 5872 5871 5870 5869 5869 5868 5868 5867 5867 5866 5865 5864 5864 5863 5862 5861 5860 5859 5858 5857 5856 5855 5855 5854 5853 5853 5852 5852 5851 5851 5851 5850 5850 5849 5849 5849 5848 5847 5845 5843 5842 5844 5846 5847
5874 5874 5873 5873 5872 5871 5870 5870 5869 5868 5868 5867 5867 5866 5865 5864 5864 5863 5862 5861 5860 5859 5858 5857 5856 5855 5855 5854 5853 5852 5852 5851 5851 5850 5850 5849 5849 5848 5848 5847 5847 5846 5845 5843 5842 5841 5842 5844 5845
5873 5873 5873 5872 5871 5871 5870 5869 5868 5868 5868 5867 5866 5865 5865 5864 5863 5862 5861 5860 5859 5858 5857 5856 5855 5854 5854 5853 5852 5851 5851 5850 5850 5849 5848 5848 5847 5847 5846 5846 5846 5845 5844 5843 5842 5841 5842 5842 5843
5873 5873 5872 5872 5871 5870 5869 5869 5868 5868 5868 5867 5866 5865 5864 5863 5862 5862 5861 5860 5859 5858 5857 5856 5855 5854 5853 5852 5851 5850 5850 5849 5848 5848 5847 5846 5846 5845 5845 5844 5844 5843 5843 5842 5842 5841 5841 5841 5842
5873 5872 5872 5871 5870 5870 5869 5868 5868 5867 5867 5866 5865 5864 5863 5863 5862 5861 5860 5859 5858 5857 5856 5855 5854 5853 5852 5851 5850 5849 5849 5848 5847 5847 5846 5845 5845 5844 5843 5843 5843 5842 5841 5841 5841 5840 5840 5840 5840
5872 5872 5871 5870 5869 5869 5869 5868 5868 5867 5866 5865 5864 5863 5863 5862 5861 5860 5859 5858 5857 5856 5855 5854 5853 5852 5851 5850 5849 5848 5848 5847 5846 5845 5845 5844 5843 5843 5842 5841 5841 5841 5840 5840 5839 5839 5839 5838 5838
5871 5871 5870 5869 5869 5868 5868 5868 5867 5866 5865 5864 5864 5863 5862 5861 5860 5859 5858 5857 5856 5855 5854 5853 5852 5851 5850 5849 5849 5847 5847 5846 5845 5844 5843 5843 5842 5841 5841 5840 5840 5839 5839 5838 5838 5837 5837 5837 5836
5870 5870 5870 5869 5868 5868 5869 5868 5866 5865 5864 5864 5863 5862 5861 5860 5859 5858 5857 5856 5855 5854 5853 5852 5851 5850 5849 5848 5848 5847 5846 5845 5844 5843 5842 5842 5841 5840 5839 5839 5838 5838 5837 5836 5836 5835 5835 5835 5835
5869 5869 5868 5868 5867 5867 5867 5866 5865 5864 5863 5863 5862 5861 5860 5859 5858 5857 5856 5855 5854 5853 5852 5851 5850 5850 5849 5848 5847 5846 5845 5844 5843 5842 5841 5840 5839 5839 5838 5837 5837 5836 5836 5835 5834 5834 5833 5833 5832
5868 5868 5867 5867 5866 5866 5865 5865 5864 5863 5863 5862 5861 5860 5859 5858 5857 5856 5855 5854 5853 5852 5851 5850 5849 5849 5848 5847 5846 5845 5844 5843 5842 5841 5840 5839 5838 5837 5836 5835 5835 5834 5834 5833 5832 5832 5831 5831 5831
5866 5866 5866 5866 5865 5865 5864 5864 5863 5862 5861 5860 5860 5858 5857 5856 5856 5855 5854 5853 5852 5851 5850 5849 5848 5848 5847 5846 5845 5844 5843 5842 5841 5840 5838 5837 5836 5835 5834 5833 5833 5832 5832 5831 5830 5830 5829 5829 5828
5864 5864 5865 5864 5864 5864 5863 5862 5861 5860 5860 5859 5858 5857 5856 5855 5854 5854 5853 5852 5851 5850 5849 5848 5847 5846 5845 5844 5843 5842 5841 5840 5839 5838 5836 5835 5834 5833 5832 5831 5830 5830 5829 5829 5828 5828 5827 5827 5826
5862 5863 5863 5863 5862 5862 5862 5861 5860 5859 5858 5858 5857 5856 5855 5854 5853 5852 5851 5850 5849 5849 5848 5847 5846 5845 5844 5843 5842 5841 5840 5838 5837 5836 5835 5833 5832 5831 5830 5829 5828 5827 5827 5826 5826 5825 5825 5824 5824
5860 5860 5860 5860 5860 5860 5860 5859 5858 5857 5857 5856 5855 5854 5853 5853 5852 5851 5850 5849 5848 5847 5846 5845 5844 5843 5842 5841 5840 5839 5838 5837 5835 5834 5833 5831 5830 5829 5827 5826 5825 5825 5824 5824 5823 5823 5822 5822 5822
5858 5858 5858 5857 5857 5857 5857 5857 5857 5856 5855 5854 5853 5852 5851 5851 5850 5849 5848 5847 5846 5845 5844 5843 5842 5841 5840 5839 5838 5837 5836 5834 5833 5832 5830 5829 5828 5826 5825 5824 5823 5822 5822 5821 5821 5820 5820 5820 5819
5855 5855 5855 5854 5854 5855 5855 5854 5855 5854 5853 5852 5851 5850 5849 5849 5848 5847 5846 5845 5844 5843 5842 5841 5840 5839 5838 5837 5836 5834 5833 5832 5831 5830 5828 5827 5825 5824 5823 5822 5821 5820 5819 5819 5818 5818 5817 5817 5817
5852 5853 5852 5852 5851 5852 5852 5851 5852 5851 5851 5850 5849 5848 5847 5846 5845 5844 5843 5842 5841 5840 5839 5838 5837 5836 5835 5834 5833 5832 5831 5830 5829 5827 5826 5824 5823 5822 5821 5820 5818 5818 5817 5816 5816 5815 5815 5814 5814
5849 5849 5850 5849 5849 5849 5848 5848 5850 5848 5848 5847 5846 5845 5844 5843 5842 5841 5840 5839 5838 5837 5836 5835 5834 5833 5832 5831 5830 5829 5828 5827 5826 5825 5823 5822 5821 5819 5818 5817 5816 5815 5814 5814 5813 5813 5812 5812 5812
5845 5845 5846 5846 5845 5845 5845 5846 5846 5845 5844 5844 5843 5842 5841 5840 5839 5838 5837 5836 5835 5834 5833 5832 5831 5830 5829 5828 5827 5826 5825 5824 5823 5822 5820 5819 5818 5817 5815 5814 5813 5813 5812 5811 5811 5810 5810 5809 5809
5842 5842 5842 5842 5841 5841 5842 5842 5843 5842 5841 5841 5840 5839 5838 5837 5836 5835 5833 5832 5831 5830 5829 5828 5827 5826 5825 5825 5824 5823 5822 5821 5820 5819 5817 5816 5815 5814 5812 5811 5810 5809 5809 5808 5808 5807 5807 5806 5806
5838 5838 5837 5837 5837 5838 5838 5841 5839 5838 5838 5837 5836 5835 5834 5833 5832 5831 5830 5828 5827 5826 5825 5824 5823 5822 5821 5820 5819 5818 5818 5817 5816 5815 5814 5813 5812 5810 5809 5808 5807 5806 5805 5805 5804 5804 5803 5803 5802
5832 5832 5833 5833 5833 5832 5833 5838 5834 5834 5833 5833 5832 5831 5830 5829 5828 5827 5826 5824 5823 5822 5820 5819 5818 5817 5816 5816 5815 5814 5813 5812 5812 5811 5810 5808 5807 5806 5805 5804 5804 5803 5802 5801 5801 5800 5799 5799 5799